This demonstration page uses our WeatherBlox Daily Observations layout. Learn more.

Left ArrowRight Arrow

Hourly Observations for January 21, 2020

Temp ( °F °C ) Dew Point ( °F °C ) Humidity (%) Winds ( mph kmh ) Pressure ( in mb ) Visibility ( mi km ) Precip ( " mm )
12:15 am 00:15 Cloudy 25 -4 23 -5 93 93 N 7 11 30.64 1038 10 16.0934 N/A
12:36 am 00:36 Cloudy 25 -4 23 -5 93 93 N 7 11 30.64 1038 10 16.0934 N/A
12:55 am 00:55 Cloudy 25 -4 23 -5 93 93 N 6 9 30.64 1038 10 16.0934 N/A
1:15 am 01:15 Cloudy 25 -4 25 -4 100 100 N 7 11 30.64 1038 10 16.0934 N/A
1:35 am 01:35 Cloudy 23 -5 23 -5 100 100 N 5 7 30.63 1037 10 16.0934 N/A
1:56 am 01:56 Cloudy 23 -5 23 -5 100 100 Calm 30.63 1037 10 16.0934 N/A
2:15 am 02:15 Cloudy 23 -5 23 -5 100 100 Calm 30.64 1038 10 16.0934 N/A
2:36 am 02:36 Cloudy 23 -5 23 -5 100 100 Calm 30.65 1038 10 16.0934 N/A
2:55 am 02:55 Cloudy 23 -5 23 -5 100 100 Calm 30.65 1038 10 16.0934 N/A
3:15 am 03:15 Cloudy 23 -5 21 -6 93 93 E 3 6 30.65 1038 7 11.26538 N/A
3:35 am 03:35 Cloudy 23 -5 21 -6 93 93 Calm 30.65 1038 7 11.26538 N/A
3:55 am 03:55 Cloudy 23 -5 21 -6 93 93 Calm 30.64 1038 5 8.0467 N/A
4:15 am 04:15 Cloudy 23 -5 23 -5 100 100 Calm 30.65 1038 5 8.0467 N/A
4:36 am 04:36 Cloudy 23 -5 23 -5 100 100 Calm 30.65 1038 3 4.82802 N/A
4:56 am 04:56 Cloudy 23 -5 23 -5 100 100 Calm 30.65 1038 4 6.43736 N/A
5:15 am 05:15 Cloudy 23 -5 23 -5 100 100 Calm 30.64 1038 4 6.43736 N/A
5:35 am 05:35 Cloudy 23 -5 23 -5 100 100 Calm 30.64 1038 4 6.43736 N/A
5:55 am 05:55 Cloudy 23 -5 23 -5 100 100 Calm 30.64 1038 7 11.26538 N/A
6:15 am 06:15 Cloudy 23 -5 23 -5 100 100 Calm 30.65 1038 7 11.26538 N/A
6:35 am 06:35 Cloudy 23 -5 23 -5 100 100 Calm 30.66 1038 10 16.0934 N/A
6:55 am 06:55 Cloudy 23 -5 23 -5 100 100 Calm 30.66 1038 5 8.0467 N/A
7:15 am 07:15 Cloudy 23 -5 23 -5 100 100 Calm 30.67 1039 7 11.26538 N/A
7:35 am 07:35 Cloudy 23 -5 23 -5 100 100 Calm 30.67 1039 7 11.26538 N/A
7:56 am 07:56 Cloudy 25 -4 25 -4 100 100 Calm 30.67 1039 7 11.26538 N/A
8:15 am 08:15 Cloudy 25 -4 25 -4 100 100 Calm 30.67 1039 5 8.0467 N/A
8:36 am 08:36 Cloudy 25 -4 25 -4 100 100 Calm 30.68 1039 5 8.0467 N/A
8:56 am 08:56 Cloudy 25 -4 25 -4 100 100 Calm 30.68 1039 5 8.0467 N/A
9:15 am 09:15 Cloudy 25 -4 25 -4 100 100 Calm 30.68 1039 7 11.26538 N/A
9:36 am 09:36 Cloudy 25 -4 25 -4 100 100 Calm 30.68 1039 7 11.26538 N/A
9:56 am 09:56 Cloudy 25 -4 25 -4 100 100 Calm 30.68 1039 7 11.26538 N/A
10:15 am 10:15 Cloudy 25 -4 25 -4 100 100 Calm 30.68 1039 7 11.26538 N/A
10:36 am 10:36 Cloudy 25 -4 25 -4 100 100 S 3 6 30.68 1039 10 16.0934 N/A
10:55 am 10:55 Cloudy 25 -4 25 -4 100 100 S 3 6 30.69 1039 10 16.0934 N/A
11:15 am 11:15 Cloudy 25 -4 23 -5 93 93 S 5 7 30.68 1039 10 16.0934 N/A
11:36 am 11:36 Cloudy 25 -4 25 -4 100 100 S 5 7 30.68 1039 10 16.0934 N/A
11:56 am 11:56 Cloudy 27 -3 23 -5 86 86 S 3 6 30.68 1039 10 16.0934 N/A
12:15 pm 12:15 Cloudy 27 -3 23 -5 86 86 S 3 6 30.67 1039 10 16.0934 N/A
12:36 pm 12:36 Cloudy 27 -3 23 -5 86 86 Calm 30.67 1039 10 16.0934 N/A
12:55 pm 12:55 Cloudy 27 -3 21 -6 80 80 Calm 30.66 1038 10 16.0934 N/A
1:15 pm 13:15 Cloudy 27 -3 23 -5 86 86 Calm 30.64 1037 10 16.0934 N/A
1:35 pm 13:35 Cloudy 27 -3 21 -6 80 80 Calm 30.63 1037 10 16.0934 N/A
1:56 pm 13:56 Cloudy 27 -3 21 -6 80 80 WSW 5 7 30.62 1037 10 16.0934 N/A
2:16 pm 14:16 Cloudy 27 -3 21 -6 80 80 Calm 30.62 1037 10 16.0934 N/A
2:35 pm 14:35 Cloudy 27 -3 21 -6 80 80 WSW 5 7 30.61 1036 10 16.0934 N/A
2:55 pm 14:55 Cloudy 27 -3 21 -6 80 80 Calm 30.59 1036 10 16.0934 N/A
3:16 pm 15:16 Cloudy 27 -3 21 -6 80 80 S 6 9 30.59 1036 10 16.0934 N/A
3:36 pm 15:36 Cloudy 27 -3 21 -6 80 80 Calm 30.59 1036 10 16.0934 N/A
3:56 pm 15:56 Cloudy 27 -3 21 -6 80 80 ESE 3 6 30.59 1036 10 16.0934 N/A
4:15 pm 16:15 Cloudy 27 -3 23 -5 86 86 SSW 5 7 30.59 1036 10 16.0934 N/A
4:35 pm 16:35 Cloudy 27 -3 21 -6 80 80 SSE 5 7 30.59 1036 10 16.0934 N/A
4:55 pm 16:55 Mostly Cloudy 27 -3 21 -6 80 80 SSW 5 7 30.59 1036 10 16.0934 N/A
5:16 pm 17:16 Partly Cloudy 27 -3 21 -6 80 80 S 6 9 30.59 1036 10 16.0934 N/A
5:36 pm 17:36 Sunny 27 -3 21 -6 80 80 Calm 30.58 1035 10 16.0934 N/A
5:56 pm 17:56 Clear 25 -4 21 -6 86 86 S 3 6 30.59 1036 10 16.0934 N/A
6:16 pm 18:16 Clear 25 -4 21 -6 86 86 S 3 6 30.59 1036 10 16.0934 N/A
6:35 pm 18:35 Clear 23 -5 21 -6 93 93 S 3 6 30.59 1036 10 16.0934 N/A
6:56 pm 18:56 Clear 23 -5 21 -6 93 93 S 5 7 30.59 1036 10 16.0934 N/A
7:15 pm 19:15 Clear 23 -5 21 -6 93 93 S 6 9 30.59 1036 10 16.0934 N/A
7:35 pm 19:35 Clear 21 -6 19 -7 93 93 S 5 7 30.6 1036 10 16.0934 N/A
7:56 pm 19:56 Clear 21 -6 19 -7 93 93 S 5 7 30.6 1036 10 16.0934 N/A
8:15 pm 20:15 Clear 21 -6 21 -6 100 100 SSE 5 7 30.59 1036 10 16.0934 N/A
8:36 pm 20:36 Clear 21 -6 19 -7 93 93 SSE 6 9 30.58 1036 10 16.0934 N/A
8:55 pm 20:55 Clear 21 -6 19 -7 93 93 SE 5 7 30.57 1035 10 16.0934 N/A
9:15 pm 21:15 Clear 21 -6 19 -7 93 93 SSE 5 7 30.56 1035 10 16.0934 N/A
9:36 pm 21:36 Clear 21 -6 19 -7 93 93 SSE 6 9 30.55 1034 10 16.0934 N/A
9:55 pm 21:55 Clear 21 -6 19 -7 93 93 SSE 5 7 30.54 1034 10 16.0934 N/A
10:16 pm 22:16 Clear 21 -6 19 -7 93 93 S 5 7 30.54 1034 10 16.0934 N/A
10:35 pm 22:35 Clear 19 -7 19 -7 100 100 S 6 9 30.53 1034 10 16.0934 N/A
10:55 pm 22:55 Clear 19 -7 19 -7 100 100 S 5 7 30.53 1034 10 16.0934 N/A
11:15 pm 23:15 Clear 19 -7 19 -7 100 100 Calm 30.53 1034 10 16.0934 N/A
11:35 pm 23:35 Clear 19 -7 19 -7 100 100 S 3 6 30.53 1034 10 16.0934 N/A
11:56 pm 23:56 Clear 19 -7 19 -7 100 100 SSE 3 6 30.53 1034 10 16.0934 N/A

Powered by AerisWeather